This demonstration page uses our WeatherBlox Daily Observations layout. Learn more.

Left ArrowRight Arrow

39.92423, -83.80882

Hourly Observations for January 24, 2020

Temp ( °F °C ) Dew Point ( °F °C ) Humidity (%) Winds ( mph kmh ) Pressure ( in mb ) Visibility ( mi km ) Precip ( " mm )
12:56 am 00:56 Cloudy with Light Rain 37 2.8 29 -1.7 73 73 ESE 14 22 30.04 1017 10 16.0934 0.001 0.001
1:56 am 01:56 Cloudy 39 3.9 28 -2.2 65 65 ESE 16 26 30.02 1017 10 16.0934 0.001 0.001
2:56 am 02:56 Cloudy 39 3.9 32 0 76 76 SE 17 28 30 1016 10 16.0934 0 0
3:34 am 03:34 Cloudy with Light Rain 39 4 34 1 81 81 SE 14 22 30.01 1016 10 16.0934 0.001 0.001
3:56 am 03:56 Cloudy with Light Rain 38 3.3 35 1.7 89 89 SE 13 20 29.99 1016 10 16.0934 0.001 0.001
4:10 am 04:10 Cloudy 37 3 36 2 93 93 SE 15 24 30.01 1016 10 16.0934 0.001 0.001
4:43 am 04:43 Cloudy with Light Rain 37 3 37 3 100 100 SE 14 22 30.01 1016 10 16.0934 0.01 0.254
4:56 am 04:56 Cloudy with Light Rain 37 2.8 37 2.8 100 100 ESE 14 22 29.99 1016 10 16.0934 0.01 0.254
5:56 am 05:56 Cloudy with Light Rain 38 3.3 38 3.3 100 100 ESE 13 20 29.98 1015 10 16.0934 0.01 0.254
6:56 am 06:56 Cloudy with Light Rain 38 3.3 38 3.3 100 100 ESE 14 22 29.96 1015 10 16.0934 0.05 1.27
7:56 am 07:56 Cloudy with Light Rain 39 3.9 39 3.9 100 100 ESE 16 26 29.96 1015 10 16.0934 0.34 8.636
8:44 am 08:44 Cloudy 39 4 39 4 100 100 ESE 16 26 29.97 1015 10 16.0934 0.001 0.001
8:56 am 08:56 Cloudy 40 4.4 40 4.4 100 100 ESE 16 26 29.95 1014 10 16.0934 0.001 0.001
9:13 am 09:13 Cloudy 39 4 39 4 100 100 ESE 16 26 29.96 1014 10 16.0934 0 0
9:56 am 09:56 Cloudy 41 5 41 5 100 100 ESE 15 24 29.94 1014 10 16.0934 0.001 0.001
10:56 am 10:56 Cloudy with Light Rain 41 5 41 5 100 100 ESE 14 22 29.93 1014 8 12.87472 0.001 0.001
11:56 am 11:56 Cloudy with Light Rain 41 5 41 5 100 100 SE 9 15 29.91 1013 3 4.82802 0.001 0.001
12:03 pm 12:03 Cloudy with Light Rain 41 5 41 5 100 100 SE 12 19 29.92 1013 5 8.0467 0.001 0.001
12:56 pm 12:56 Cloudy with Light Rain 42 5.6 42 5.6 100 100 SE 8 13 29.87 1012 10 16.0934 0 0
1:56 pm 13:56 Cloudy with Rain 42 5.6 42 5.6 100 100 SSE 5 7 29.85 1011 2 3.21868 0 0
2:12 pm 14:12 Cloudy with Light Rain 43 6 43 6 100 100 Calm 29.85 1011 4 6.43736 0 0
2:56 pm 14:56 Cloudy with Light Rain 42 5.6 42 5.6 100 100 SSW 5 7 29.84 1011 10 16.0934 0 0
3:41 pm 15:41 Cloudy with Light Rain 43 6 43 6 100 100 E 10 17 29.81 1009 8 12.87472 0 0
3:48 pm 15:48 Cloudy 43 6 43 6 100 100 E 6 9 29.81 1009 8 12.87472 0 0
3:56 pm 15:56 Cloudy 43 6.1 43 6.1 100 100 ESE 6 9 29.81 1010 8 12.87472 0 0
4:03 pm 16:03 Cloudy 43 6 43 6 100 100 SE 3 6 29.83 1010 10 16.0934 0 0
4:17 pm 16:17 Cloudy with Light Rain 43 6 43 6 100 100 Calm 29.83 1010 10 16.0934 0 0
4:56 pm 16:56 Cloudy with Mist and Fog 41 5 41 5 100 100 SSE 5 7 29.82 1010 5 8.0467 0 0
5:53 pm 17:53 Cloudy 43 6 43 6 100 100 SSE 6 9 29.84 1010 10 16.0934 0 0
5:56 pm 17:56 Cloudy 42 5.6 42 5.6 100 100 S 6 9 29.83 1010 10 16.0934 0 0
6:37 pm 18:37 Cloudy 43 6 43 6 100 100 S 3 6 29.85 1011 8 12.87472 0 0
6:56 pm 18:56 Cloudy with Mist and Fog 40 4.4 40 4.4 100 100 S 5 7 29.85 1011 2.5 4.02335 0 0
7:05 pm 19:05 Cloudy with Light Rain 41 5 41 5 100 100 SSW 13 20 29.86 1011 5 8.0467 0 0
7:18 pm 19:18 Cloudy with Light Rain 39 4 39 4 100 100 SW 10 17 29.87 1011 10 16.0934 0 0
7:28 pm 19:28 Cloudy with Light Rain 39 4 39 4 100 100 SSW 8 13 29.88 1012 10 16.0934 0 0
7:35 pm 19:35 Cloudy 39 4 39 4 100 100 SSW 8 13 29.88 1012 10 16.0934 0 0
7:56 pm 19:56 Cloudy 40 4.4 40 4.4 100 100 SSW 7 11 29.86 1011 10 16.0934 0 0
8:56 pm 20:56 Cloudy 38 3.3 38 3.3 100 100 SSW 6 9 29.87 1012 10 16.0934 0 0
9:16 pm 21:16 Cloudy 37 3 37 3 100 100 SW 6 9 29.89 1012 10 16.0934 0 0
9:56 pm 21:56 Mostly Cloudy with Mist and Fog 36 2.2 36 2.2 100 100 WSW 6 9 29.87 1012 6 9.65604 0 0
10:37 pm 22:37 Cloudy with Light Rain 37 3 37 3 100 100 WSW 6 9 29.89 1012 7 11.26538 0 0
10:56 pm 22:56 Cloudy 38 3.3 38 3.3 100 100 SW 5 7 29.87 1012 7 11.26538 0 0
11:56 pm 23:56 Cloudy with Light Rain 37 2.8 37 2.8 100 100 SW 5 7 29.88 1012 5 8.0467 0 0

Powered by AerisWeather